NWS413 URSS-UWKD

Flight info

Callsign NWS413
Flight time 2h 28m
Altitude 39000
Route IRGID A944 BEMES MOMER NIBAN/K900F400 UP N50 MOLED R807 UROBO P135 DAFOS T789 SONUM
Aircraft B77W/H-SDE1E2E3FGHIJ2J3J4J5M1RWXYZ/LB1D1

Departure

Time 2026-05-07 13:23
Airport Sochi International Airport (URSS)

Arrival

Time 2026-05-07 15:51
Airport Kazan International Airport (UWKD)
Time Latitude Longitude Altitude Speed Heading
2026-05-07 13:14 43.44893 39.94523 79 ft 0 kts 298°
2026-05-07 13:17 43.44889 39.94536 82 ft 2 kts 298°
2026-05-07 13:17 43.44881 39.94555 84 ft 2 kts 298°
2026-05-07 13:18 43.44873 39.94575 85 ft 2 kts 299°
2026-05-07 13:18 43.44865 39.94595 85 ft 2 kts 319°
2026-05-07 13:18 43.44851 39.94609 85 ft 2 kts 328°
2026-05-07 13:18 43.44837 39.94620 85 ft 2 kts 332°
2026-05-07 13:19 43.44822 39.94630 85 ft 2 kts 334°
2026-05-07 13:19 43.44808 39.94640 85 ft 2 kts 336°
2026-05-07 13:19 43.44792 39.94649 85 ft 2 kts 343°
2026-05-07 13:19 43.44777 39.94648 85 ft 2 kts 54°
2026-05-07 13:20 43.44768 39.94628 85 ft 2 kts 65°
2026-05-07 13:20 43.44765 39.94617 85 ft 0 kts 65°
2026-05-07 13:21 43.44782 39.94667 85 ft 18 kts 64°
2026-05-07 13:21 43.44860 39.94893 87 ft 28 kts 65°
2026-05-07 13:21 43.44941 39.95123 90 ft 25 kts 62°
2026-05-07 13:21 43.45016 39.95338 94 ft 25 kts 65°
2026-05-07 13:22 43.45054 39.95482 100 ft 5 kts 101°
2026-05-07 13:22 43.44981 39.95550 97 ft 25 kts 175°
2026-05-07 13:22 43.44925 39.95485 97 ft 19 kts 244°
2026-05-07 13:22 43.44754 39.94949 85 ft 119 kts 245°
2026-05-07 13:23 43.44249 39.93442 255 ft 217 kts 245°
2026-05-07 13:23 43.43647 39.91458 971 ft 221 kts 256°
2026-05-07 13:23 43.43286 39.89435 1728 ft 216 kts 255°
2026-05-07 13:23 43.42915 39.87342 2389 ft 237 kts 257°
2026-05-07 13:24 43.42543 39.85080 3239 ft 246 kts 258°
2026-05-07 13:24 43.42159 39.82747 4185 ft 252 kts 258°
2026-05-07 13:24 43.41771 39.80402 5122 ft 258 kts 258°
2026-05-07 13:24 43.41362 39.77948 6020 ft 267 kts 258°
2026-05-07 13:25 43.40940 39.75429 6964 ft 272 kts 258°
2026-05-07 13:25 43.40509 39.72869 7704 ft 277 kts 258°
2026-05-07 13:25 43.40069 39.70262 8030 ft 282 kts 258°
2026-05-07 13:25 43.39622 39.67626 7992 ft 281 kts 258°
2026-05-07 13:26 43.39178 39.65014 8106 ft 282 kts 258°
2026-05-07 13:26 43.38738 39.62403 8885 ft 287 kts 259°
2026-05-07 13:26 43.38471 39.59670 9663 ft 289 kts 266°
2026-05-07 13:26 43.38315 39.56883 10017 ft 294 kts 266°
2026-05-07 13:27 43.38150 39.54045 9991 ft 299 kts 266°
2026-05-07 13:27 43.37985 39.51200 9984 ft 294 kts 271°
2026-05-07 13:27 43.38376 39.48515 9987 ft 290 kts 297°
2026-05-07 13:27 43.39595 39.46347 10005 ft 289 kts 322°
2026-05-07 13:28 43.41382 39.44921 10237 ft 310 kts 342°
2026-05-07 13:28 43.43581 39.44225 10474 ft 339 kts 352°
2026-05-07 13:28 43.46019 39.43761 10732 ft 367 kts 353°
2026-05-07 13:28 43.48555 39.43280 11472 ft 375 kts 353°
2026-05-07 13:29 43.51183 39.43285 12185 ft 383 kts 11°
2026-05-07 13:29 43.53733 39.44394 12984 ft 387 kts 20°
2026-05-07 13:29 43.56310 39.45679 13889 ft 394 kts 19°
2026-05-07 13:29 43.58913 39.46949 14817 ft 398 kts 19°
2026-05-07 13:30 43.61520 39.48202 15695 ft 403 kts 19°
2026-05-07 13:30 43.64203 39.49476 16546 ft 409 kts 19°
2026-05-07 13:30 43.66918 39.50762 17382 ft 415 kts 19°
2026-05-07 13:30 43.69551 39.52390 17985 ft 418 kts 34°
2026-05-07 13:31 43.71674 39.55177 18664 ft 426 kts 53°
2026-05-07 13:31 43.73136 39.58682 19481 ft 428 kts 68°
2026-05-07 13:31 43.73932 39.62657 20187 ft 430 kts 77°
2026-05-07 13:31 43.74509 39.66752 20836 ft 436 kts 78°
2026-05-07 13:32 43.75069 39.70907 21452 ft 443 kts 78°
2026-05-07 13:32 43.75654 39.75130 22073 ft 448 kts 78°
2026-05-07 13:32 43.76261 39.79331 22760 ft 452 kts 78°
2026-05-07 13:32 43.76897 39.83616 23356 ft 457 kts 77°
2026-05-07 13:33 43.77546 39.87952 23934 ft 461 kts 78°
2026-05-07 13:33 43.78196 39.92317 24457 ft 464 kts 78°
2026-05-07 13:33 43.78803 39.96726 25008 ft 467 kts 79°
2026-05-07 13:33 43.79376 40.01172 25483 ft 470 kts 79°
2026-05-07 13:34 43.79939 40.05646 25962 ft 473 kts 79°
2026-05-07 13:34 43.81067 40.14621 26827 ft 478 kts 79°
2026-05-07 13:34 43.81641 40.19159 27202 ft 480 kts 79°
2026-05-07 13:35 43.82223 40.23741 27574 ft 482 kts 79°
2026-05-07 13:35 43.82805 40.28318 27898 ft 484 kts 79°
2026-05-07 13:35 43.83389 40.32924 28216 ft 486 kts 79°
2026-05-07 13:35 43.83974 40.37550 28535 ft 487 kts 79°
2026-05-07 13:36 43.84558 40.42192 28808 ft 489 kts 79°
2026-05-07 13:36 43.85133 40.46780 29167 ft 488 kts 79°
2026-05-07 13:36 43.85711 40.51413 29616 ft 486 kts 79°
2026-05-07 13:36 43.86285 40.56024 30106 ft 483 kts 79°
2026-05-07 13:37 43.86852 40.60597 30502 ft 481 kts 79°
2026-05-07 13:37 43.87418 40.65165 30773 ft 481 kts 79°
2026-05-07 13:37 43.87979 40.69760 31015 ft 482 kts 80°
2026-05-07 13:37 43.88355 40.74331 31267 ft 483 kts 85°
2026-05-07 13:38 43.88560 40.78980 31533 ft 483 kts 85°
2026-05-07 13:38 43.88743 40.83631 31818 ft 483 kts 86°
2026-05-07 13:38 43.88925 40.88285 32087 ft 483 kts 85°
2026-05-07 13:38 43.89112 40.92962 32343 ft 484 kts 85°
2026-05-07 13:39 43.89304 40.97618 32597 ft 484 kts 85°
2026-05-07 13:39 43.89500 41.02278 32868 ft 484 kts 85°
2026-05-07 13:39 43.89693 41.06881 33104 ft 484 kts 85°
2026-05-07 13:39 43.89889 41.11545 33351 ft 485 kts 85°
2026-05-07 13:40 43.90084 41.16230 33599 ft 485 kts 85°
2026-05-07 13:40 43.90275 41.20899 33850 ft 485 kts 85°
2026-05-07 13:40 43.90465 41.25582 34091 ft 486 kts 85°
2026-05-07 13:40 43.90654 41.30278 34295 ft 486 kts 86°
2026-05-07 13:41 43.90837 41.34911 34453 ft 487 kts 86°
2026-05-07 13:41 43.91022 41.39619 34609 ft 488 kts 86°
2026-05-07 13:41 43.91205 41.44333 34768 ft 489 kts 86°
2026-05-07 13:41 43.91387 41.49053 34939 ft 490 kts 86°
2026-05-07 13:42 43.91567 41.53784 35099 ft 491 kts 86°
2026-05-07 13:42 43.91745 41.58523 35264 ft 492 kts 86°
2026-05-07 13:42 43.91916 41.63275 35402 ft 493 kts 86°
2026-05-07 13:42 43.92081 41.67963 35552 ft 494 kts 86°
2026-05-07 13:43 43.92245 41.72721 35710 ft 494 kts 86°
2026-05-07 13:43 43.92407 41.77485 35861 ft 495 kts 86°
2026-05-07 13:43 43.92568 41.82267 36014 ft 496 kts 86°
2026-05-07 13:43 43.92729 41.87063 36181 ft 496 kts 87°
2026-05-07 13:44 43.92888 41.91853 36342 ft 496 kts 87°
2026-05-07 13:44 43.93044 41.96592 36504 ft 496 kts 87°
2026-05-07 13:44 43.93199 42.01385 36709 ft 496 kts 87°
2026-05-07 13:44 43.93352 42.06169 36866 ft 496 kts 87°
2026-05-07 13:45 43.93503 42.10962 36989 ft 498 kts 87°
2026-05-07 13:45 43.93652 42.15767 37096 ft 499 kts 87°
2026-05-07 13:45 43.93800 42.20594 37224 ft 500 kts 87°
2026-05-07 13:45 43.93944 42.25364 37346 ft 501 kts 87°
2026-05-07 13:46 43.94089 42.30210 37459 ft 502 kts 87°
2026-05-07 13:46 43.94231 42.35054 37623 ft 502 kts 87°
2026-05-07 13:46 43.94372 42.39912 37810 ft 501 kts 87°
2026-05-07 13:46 43.94510 42.44738 38096 ft 499 kts 88°
2026-05-07 13:47 43.94600 42.47932 38410 ft 495 kts 88°
2026-05-07 13:47 43.94774 42.54187 39083 ft 485 kts 88°
2026-05-07 13:47 43.94903 42.58872 39136 ft 485 kts 88°
2026-05-07 13:48 43.95079 42.66659 39150 ft 485 kts 89°
2026-05-07 13:48 43.95124 42.76043 39137 ft 484 kts 90°
2026-05-07 13:49 43.95127 42.85349 39147 ft 488 kts 90°
2026-05-07 13:49 43.95142 42.94854 39141 ft 494 kts 90°
2026-05-07 13:50 43.95164 43.04394 39141 ft 500 kts 90°
2026-05-07 13:50 43.95183 43.14103 39134 ft 504 kts 90°
2026-05-07 13:51 43.95194 43.23861 39120 ft 506 kts 90°
2026-05-07 13:51 43.95195 43.33642 39111 ft 506 kts 90°
2026-05-07 13:52 43.95188 43.43347 39102 ft 506 kts 90°
2026-05-07 13:52 43.95172 43.53165 39095 ft 507 kts 90°
2026-05-07 13:53 43.95148 43.62890 39080 ft 506 kts 90°
2026-05-07 13:53 43.95115 43.72695 39083 ft 508 kts 90°
2026-05-07 13:54 43.95074 43.82498 39076 ft 505 kts 91°
2026-05-07 13:54 43.95025 43.92224 39091 ft 508 kts 91°
2026-05-07 13:55 43.94967 44.02035 39086 ft 508 kts 91°
2026-05-07 13:55 43.94901 44.11864 39085 ft 508 kts 91°
2026-05-07 13:56 43.94826 44.21691 39090 ft 509 kts 91°
2026-05-07 13:56 43.94744 44.31429 39094 ft 507 kts 91°
2026-05-07 13:57 43.94652 44.41270 39098 ft 509 kts 91°
2026-05-07 13:57 43.94552 44.51112 39101 ft 509 kts 91°
2026-05-07 13:58 43.94445 44.60876 39098 ft 510 kts 91°
2026-05-07 13:58 43.94328 44.70702 39088 ft 507 kts 91°
2026-05-07 13:59 43.94203 44.80541 39095 ft 509 kts 92°
2026-05-07 13:59 43.94070 44.90327 39079 ft 509 kts 92°
2026-05-07 14:00 43.93928 45.00191 39084 ft 511 kts 92°
2026-05-07 14:00 43.93778 45.09971 39071 ft 510 kts 92°
2026-05-07 14:01 43.93618 45.19843 39066 ft 510 kts 92°
2026-05-07 14:01 43.93451 45.29645 39066 ft 511 kts 92°
2026-05-07 14:02 43.93276 45.39507 39055 ft 511 kts 92°
2026-05-07 14:02 43.93090 45.49394 39059 ft 512 kts 92°
2026-05-07 14:03 43.92898 45.59243 39056 ft 513 kts 92°
2026-05-07 14:03 43.92695 45.69149 39050 ft 514 kts 92°
2026-05-07 14:04 43.92485 45.79079 39053 ft 515 kts 92°
2026-05-07 14:04 43.92951 45.88935 39045 ft 517 kts 79°
2026-05-07 14:05 43.95176 45.98413 39039 ft 518 kts 64°
2026-05-07 14:05 43.98395 46.07375 39038 ft 518 kts 63°
2026-05-07 14:06 44.01647 46.16264 39039 ft 519 kts 63°
2026-05-07 14:06 44.04868 46.25289 39034 ft 520 kts 64°
2026-05-07 14:07 44.08032 46.34309 39033 ft 523 kts 64°
2026-05-07 14:07 44.11213 46.43430 39034 ft 525 kts 64°
2026-05-07 14:08 44.14409 46.52612 39034 ft 527 kts 64°
2026-05-07 14:08 44.17588 46.61766 39023 ft 528 kts 64°
2026-05-07 14:09 44.20778 46.70982 39017 ft 528 kts 64°
2026-05-07 14:09 44.23974 46.80245 39014 ft 528 kts 64°
2026-05-07 14:10 44.27136 46.89446 39011 ft 528 kts 65°
2026-05-07 14:10 44.30300 46.98682 39006 ft 527 kts 65°
2026-05-07 14:11 44.33465 47.07953 39004 ft 526 kts 65°
2026-05-07 14:11 44.36606 47.17187 39001 ft 526 kts 65°
2026-05-07 14:12 44.39721 47.26375 38997 ft 525 kts 65°
2026-05-07 14:12 44.42847 47.35627 38997 ft 525 kts 65°
2026-05-07 14:13 44.45959 47.44868 38992 ft 524 kts 65°
2026-05-07 14:13 44.49416 47.53723 38978 ft 522 kts 49°
2026-05-07 14:13 44.52095 47.57127 38987 ft 520 kts 32°
2026-05-07 14:14 44.55280 47.59532 38997 ft 518 kts 20°
2026-05-07 14:14 44.58736 47.60883 38977 ft 514 kts
2026-05-07 14:14 44.62293 47.61316 39005 ft 511 kts
2026-05-07 14:15 44.69374 47.61987 38984 ft 515 kts
2026-05-07 14:15 44.76540 47.62748 38982 ft 518 kts
2026-05-07 14:16 44.83738 47.63617 38979 ft 520 kts
2026-05-07 14:16 44.90987 47.64525 38973 ft 521 kts
2026-05-07 14:17 44.98171 47.65424 38966 ft 521 kts
2026-05-07 14:17 45.05416 47.66325 38960 ft 521 kts
2026-05-07 14:18 45.12602 47.67220 38959 ft 520 kts
2026-05-07 14:18 45.19820 47.68120 38954 ft 518 kts
2026-05-07 14:19 45.27012 47.69021 38953 ft 517 kts
2026-05-07 14:19 45.34136 47.69915 38947 ft 516 kts
2026-05-07 14:20 45.41303 47.70816 38941 ft 515 kts
2026-05-07 14:20 45.48449 47.71718 38941 ft 514 kts
2026-05-07 14:21 45.55524 47.72344 38922 ft 509 kts 352°
2026-05-07 14:21 45.58955 47.71244 38932 ft 504 kts 336°
2026-05-07 14:21 45.62046 47.68903 38944 ft 501 kts 323°
2026-05-07 14:21 45.64695 47.65699 38938 ft 498 kts 310°
2026-05-07 14:22 45.66759 47.61747 38942 ft 493 kts 302°
2026-05-07 14:22 45.70497 47.53537 38940 ft 497 kts 301°
2026-05-07 14:23 45.74311 47.45244 38940 ft 500 kts 302°
2026-05-07 14:23 45.78220 47.36934 38941 ft 502 kts 303°
2026-05-07 14:24 45.82117 47.28680 38937 ft 504 kts 302°
2026-05-07 14:24 45.86042 47.20323 38942 ft 505 kts 302°
2026-05-07 14:25 45.89969 47.11997 39197 ft 502 kts 306°
2026-05-07 14:25 45.94867 47.04825 39396 ft 504 kts 320°
2026-05-07 14:26 46.00794 46.99509 39569 ft 506 kts 331°
2026-05-07 14:26 46.07077 46.94846 39762 ft 506 kts 331°
2026-05-07 14:27 46.13255 46.90131 39885 ft 504 kts 330°
2026-05-07 14:27 46.19442 46.85303 39941 ft 505 kts 330°
2026-05-07 14:28 46.25731 46.80853 39935 ft 507 kts 334°
2026-05-07 14:28 46.32157 46.76583 39941 ft 507 kts 334°
2026-05-07 14:29 46.38573 46.72298 39940 ft 508 kts 334°
2026-05-07 14:29 46.44988 46.67951 39941 ft 508 kts 334°
2026-05-07 14:30 46.51389 46.63585 39937 ft 508 kts 333°
2026-05-07 14:30 46.57747 46.59234 39943 ft 508 kts 334°
2026-05-07 14:31 46.64157 46.54841 39946 ft 508 kts 334°
2026-05-07 14:31 46.70552 46.50449 39943 ft 507 kts 334°
2026-05-07 14:32 46.76899 46.46077 39946 ft 506 kts 333°
2026-05-07 14:32 46.83268 46.41678 39945 ft 505 kts 333°
2026-05-07 14:33 46.89594 46.37296 39947 ft 504 kts 333°
2026-05-07 14:33 46.95935 46.32893 39947 ft 504 kts 334°
2026-05-07 14:34 47.02272 46.28483 39944 ft 503 kts 334°
2026-05-07 14:34 47.08583 46.24077 39941 ft 502 kts 334°
2026-05-07 14:35 47.14874 46.19666 39931 ft 502 kts 334°
2026-05-07 14:35 47.21174 46.15236 39929 ft 501 kts 334°
2026-05-07 14:36 47.27478 46.10793 39949 ft 501 kts 334°
2026-05-07 14:36 47.32707 46.07099 39947 ft 501 kts 334°
2026-05-07 14:37 47.40027 46.01915 39942 ft 501 kts 334°
2026-05-07 14:37 47.48404 45.95986 39948 ft 500 kts 334°
2026-05-07 14:38 47.54678 45.91536 39950 ft 500 kts 334°
2026-05-07 14:38 47.60966 45.87060 39955 ft 500 kts 334°
2026-05-07 14:39 47.67215 45.82599 39952 ft 500 kts 334°
2026-05-07 14:39 47.73498 45.78103 39948 ft 500 kts 334°
2026-05-07 14:40 47.79728 45.73632 39964 ft 500 kts 334°
2026-05-07 14:40 47.85993 45.69124 39968 ft 499 kts 334°
2026-05-07 14:41 47.92263 45.64600 39961 ft 499 kts 333°
2026-05-07 14:41 47.98480 45.60103 39960 ft 499 kts 333°
2026-05-07 14:42 48.04739 45.55562 39973 ft 499 kts 333°
2026-05-07 14:42 48.10963 45.51034 39981 ft 499 kts 333°
2026-05-07 14:43 48.17218 45.46472 39972 ft 499 kts 333°
2026-05-07 14:43 48.23460 45.41907 39969 ft 499 kts 333°
2026-05-07 14:44 48.29666 45.37355 39969 ft 498 kts 333°
2026-05-07 14:44 48.35899 45.32772 39983 ft 498 kts 333°
2026-05-07 14:45 48.41944 45.27693 39971 ft 497 kts 324°
2026-05-07 14:45 48.47410 45.21388 39970 ft 497 kts 321°
2026-05-07 14:46 48.52841 45.14894 39990 ft 496 kts 321°
2026-05-07 14:46 48.58253 45.08492 39992 ft 496 kts 322°
2026-05-07 14:47 48.63708 45.02078 39980 ft 496 kts 322°
2026-05-07 14:47 48.69164 44.95649 39977 ft 496 kts 322°
2026-05-07 14:48 48.74575 44.89249 39985 ft 495 kts 322°
2026-05-07 14:48 48.80060 44.82933 39976 ft 493 kts 330°
2026-05-07 14:49 48.83183 44.80937 39998 ft 493 kts 346°
2026-05-07 14:49 48.86585 44.80202 39999 ft 494 kts 359°
2026-05-07 14:49 48.90001 44.80705 39978 ft 494 kts 14°
2026-05-07 14:49 48.93305 44.82105 40016 ft 494 kts 15°
2026-05-07 14:50 48.99935 44.85102 39989 ft 497 kts 15°
2026-05-07 14:50 49.06592 44.88034 39999 ft 499 kts 15°
2026-05-07 14:51 49.13259 44.90878 39996 ft 500 kts 15°
2026-05-07 14:51 49.19982 44.93722 39989 ft 501 kts 15°
2026-05-07 14:52 49.26715 44.96582 39980 ft 502 kts 15°
2026-05-07 14:52 49.33416 44.99444 39970 ft 502 kts 15°
2026-05-07 14:53 49.40162 45.02334 39971 ft 502 kts 15°
2026-05-07 14:53 49.46846 45.05207 39977 ft 501 kts 15°
2026-05-07 14:54 49.53570 45.08103 39969 ft 501 kts 15°
2026-05-07 14:54 49.60278 45.11002 39971 ft 500 kts 15°
2026-05-07 14:55 49.66965 45.13899 39970 ft 499 kts 15°
2026-05-07 14:55 49.73658 45.16817 39961 ft 499 kts 15°
2026-05-07 14:56 49.80303 45.19729 39973 ft 498 kts 15°
2026-05-07 14:56 49.86984 45.22665 39960 ft 498 kts 15°
2026-05-07 14:57 49.93662 45.25607 39965 ft 498 kts 15°
2026-05-07 14:57 50.00293 45.28536 39970 ft 497 kts 15°
2026-05-07 14:58 50.07035 45.31115 39962 ft 497 kts 12°
2026-05-07 14:58 50.13796 45.33346 39963 ft 496 kts 11°
2026-05-07 14:59 50.20528 45.35571 39975 ft 496 kts 12°
2026-05-07 14:59 50.27284 45.37861 39977 ft 496 kts 12°
2026-05-07 15:00 50.34042 45.40181 39962 ft 496 kts 12°
2026-05-07 15:00 50.40764 45.42495 39960 ft 496 kts 12°
2026-05-07 15:01 50.47517 45.44824 39963 ft 496 kts 12°
2026-05-07 15:01 50.54217 45.47140 39967 ft 496 kts 12°
2026-05-07 15:02 50.60975 45.49482 39965 ft 496 kts 12°
2026-05-07 15:02 50.67683 45.51816 39962 ft 496 kts 12°
2026-05-07 15:03 50.74429 45.54168 39957 ft 496 kts 12°
2026-05-07 15:03 50.81172 45.56535 39970 ft 496 kts 12°
2026-05-07 15:04 50.87905 45.58951 39955 ft 496 kts 12°
2026-05-07 15:04 50.94650 45.61383 39956 ft 496 kts 12°
2026-05-07 15:05 51.01349 45.63864 39961 ft 496 kts 15°
2026-05-07 15:05 51.07828 45.67734 39973 ft 496 kts 25°
2026-05-07 15:06 51.14029 45.72467 39949 ft 497 kts 25°
2026-05-07 15:06 51.20270 45.77263 39951 ft 497 kts 25°
2026-05-07 15:07 51.26487 45.81974 39953 ft 497 kts 25°
2026-05-07 15:07 51.32752 45.86703 39955 ft 497 kts 25°
2026-05-07 15:08 51.39026 45.91453 39953 ft 497 kts 25°
2026-05-07 15:08 51.45245 45.96182 39941 ft 498 kts 25°
2026-05-07 15:09 51.51509 46.00961 39926 ft 498 kts 25°
2026-05-07 15:09 51.57761 46.05765 39916 ft 498 kts 26°
2026-05-07 15:10 51.63910 46.10806 39911 ft 498 kts 27°
2026-05-07 15:10 51.70093 46.15968 39913 ft 499 kts 27°
2026-05-07 15:11 51.76273 46.21089 39913 ft 499 kts 26°
2026-05-07 15:11 51.82419 46.26183 39911 ft 499 kts 27°
2026-05-07 15:12 51.88599 46.31323 39923 ft 499 kts 27°
2026-05-07 15:12 51.94778 46.36482 39929 ft 499 kts 27°
2026-05-07 15:13 52.00923 46.41625 39932 ft 499 kts 27°
2026-05-07 15:13 52.07095 46.46808 39938 ft 499 kts 27°
2026-05-07 15:14 52.13266 46.52008 39942 ft 499 kts 27°
2026-05-07 15:14 52.19402 46.57193 39940 ft 499 kts 27°
2026-05-07 15:15 52.25578 46.62430 39939 ft 499 kts 27°
2026-05-07 15:15 52.31701 46.67639 39942 ft 499 kts 27°
2026-05-07 15:16 52.37866 46.72903 39940 ft 499 kts 27°
2026-05-07 15:16 52.44036 46.78187 39939 ft 499 kts 27°
2026-05-07 15:17 52.50158 46.83445 39941 ft 500 kts 27°
2026-05-07 15:17 52.56329 46.88760 39939 ft 500 kts 27°
2026-05-07 15:18 52.62503 46.94093 39939 ft 500 kts 27°
2026-05-07 15:18 52.68635 46.99411 39941 ft 501 kts 27°
2026-05-07 15:19 52.74807 47.04781 39939 ft 501 kts 27°
2026-05-07 15:19 52.80980 47.10167 39937 ft 502 kts 27°
2026-05-07 15:20 52.87131 47.15551 39937 ft 502 kts 27°
2026-05-07 15:20 52.93313 47.20983 39937 ft 502 kts 27°
2026-05-07 15:21 52.99494 47.26433 39936 ft 503 kts 27°
2026-05-07 15:21 53.05675 47.31902 39935 ft 503 kts 27°
2026-05-07 15:22 53.11815 47.37350 39933 ft 503 kts 27°
2026-05-07 15:22 53.18008 47.42863 39930 ft 503 kts 27°
2026-05-07 15:23 53.23150 47.47452 39929 ft 504 kts 27°
2026-05-07 15:23 53.30346 47.53896 39932 ft 504 kts 27°
2026-05-07 15:24 53.35493 47.58522 39934 ft 504 kts 27°
2026-05-07 15:24 53.41648 47.64070 39930 ft 504 kts 27°
2026-05-07 15:25 53.47839 47.69602 39943 ft 504 kts 25°
2026-05-07 15:25 53.54319 47.74102 39933 ft 503 kts 20°
2026-05-07 15:26 53.60878 47.78295 39935 ft 504 kts 20°
2026-05-07 15:26 53.67415 47.82616 39937 ft 504 kts 20°
2026-05-07 15:27 53.74042 47.86197 39939 ft 502 kts 12°
2026-05-07 15:27 53.80853 47.88812 39928 ft 494 kts 13°
2026-05-07 15:28 53.84069 47.90457 39926 ft 482 kts 19°
2026-05-07 15:28 53.87148 47.92640 39934 ft 477 kts 23°
2026-05-07 15:28 53.93179 47.97288 39927 ft 473 kts 23°
2026-05-07 15:29 53.96167 47.99599 39808 ft 473 kts 23°
2026-05-07 15:29 53.99209 48.01929 39055 ft 482 kts 23°
2026-05-07 15:29 54.02266 48.04254 38360 ft 482 kts 23°
2026-05-07 15:29 54.05343 48.06586 37547 ft 482 kts 23°
2026-05-07 15:30 54.08369 48.08877 36826 ft 480 kts 23°
2026-05-07 15:30 54.11419 48.11191 36098 ft 478 kts 23°
2026-05-07 15:30 54.14449 48.13496 35345 ft 477 kts 23°
2026-05-07 15:30 54.17489 48.15812 34537 ft 476 kts 23°
2026-05-07 15:31 54.20510 48.18118 33670 ft 476 kts 23°
2026-05-07 15:31 54.23538 48.20433 32700 ft 476 kts 24°
2026-05-07 15:31 54.26552 48.22788 31740 ft 476 kts 26°
2026-05-07 15:31 54.29481 48.25444 30739 ft 477 kts 28°
2026-05-07 15:32 54.32372 48.28214 30014 ft 473 kts 29°
2026-05-07 15:32 54.35181 48.30950 29264 ft 467 kts 29°
2026-05-07 15:32 54.37988 48.33691 28575 ft 461 kts 29°
2026-05-07 15:32 54.40769 48.36396 27960 ft 455 kts 29°
2026-05-07 15:33 54.43495 48.39039 27331 ft 450 kts 29°
2026-05-07 15:33 54.46222 48.41676 26689 ft 445 kts 29°
2026-05-07 15:33 54.48905 48.44270 26082 ft 441 kts 29°
2026-05-07 15:33 54.51565 48.46843 25477 ft 437 kts 29°
2026-05-07 15:34 54.54206 48.49399 24879 ft 433 kts 29°
2026-05-07 15:34 54.56819 48.51935 24279 ft 430 kts 29°
2026-05-07 15:34 54.59388 48.54430 23604 ft 429 kts 29°
2026-05-07 15:34 54.61988 48.56961 22794 ft 428 kts 28°
2026-05-07 15:35 54.64583 48.59490 22025 ft 427 kts 29°
2026-05-07 15:35 54.67167 48.62013 21348 ft 423 kts 28°
2026-05-07 15:35 54.69692 48.64482 20769 ft 419 kts 28°
2026-05-07 15:35 54.72221 48.66959 20144 ft 416 kts 28°
2026-05-07 15:36 54.74735 48.69424 19492 ft 414 kts 28°
2026-05-07 15:36 54.77240 48.71883 18889 ft 411 kts 28°
2026-05-07 15:36 54.79718 48.74319 18304 ft 409 kts 28°
2026-05-07 15:36 54.82182 48.76745 17662 ft 406 kts 28°
2026-05-07 15:37 54.84625 48.79155 17089 ft 401 kts 28°
2026-05-07 15:37 54.87033 48.81538 16518 ft 396 kts 28°
2026-05-07 15:37 54.89417 48.83900 15974 ft 392 kts 28°
2026-05-07 15:37 54.91782 48.86248 15409 ft 389 kts 28°
2026-05-07 15:38 54.94089 48.88540 14949 ft 383 kts 28°
2026-05-07 15:38 54.96393 48.90833 14484 ft 378 kts 28°
2026-05-07 15:38 54.98673 48.93104 13933 ft 376 kts 28°
2026-05-07 15:38 55.00890 48.95318 13830 ft 354 kts 28°
2026-05-07 15:39 55.02925 48.97355 13593 ft 322 kts 28°
2026-05-07 15:39 55.04790 48.99223 13220 ft 299 kts 28°
2026-05-07 15:39 55.06555 49.00988 12650 ft 286 kts 28°
2026-05-07 15:39 55.08242 49.02676 11983 ft 280 kts 28°
2026-05-07 15:40 55.09942 49.04377 11256 ft 276 kts 28°
2026-05-07 15:40 55.11574 49.06012 10558 ft 273 kts 28°
2026-05-07 15:40 55.13214 49.07660 9911 ft 275 kts 29°
2026-05-07 15:40 55.14879 49.09334 9513 ft 276 kts 29°
2026-05-07 15:41 55.16545 49.11012 9164 ft 275 kts 29°
2026-05-07 15:41 55.18143 49.12833 8855 ft 273 kts 34°
2026-05-07 15:41 55.19671 49.14799 8563 ft 271 kts 35°
2026-05-07 15:41 55.21170 49.16765 8274 ft 268 kts 35°
2026-05-07 15:42 55.22658 49.18716 7990 ft 265 kts 35°
2026-05-07 15:42 55.24129 49.20633 7708 ft 262 kts 35°
2026-05-07 15:42 55.25573 49.22510 7428 ft 260 kts 35°
2026-05-07 15:42 55.27021 49.24389 7168 ft 258 kts 35°
2026-05-07 15:43 55.28460 49.26253 6895 ft 255 kts 34°
2026-05-07 15:43 55.29885 49.28099 6628 ft 253 kts 34°
2026-05-07 15:43 55.31296 49.29925 6364 ft 251 kts 34°
2026-05-07 15:43 55.32699 49.31741 6081 ft 249 kts 34°
2026-05-07 15:44 55.34094 49.33548 5813 ft 248 kts 35°
2026-05-07 15:44 55.35490 49.35359 5460 ft 251 kts 35°
2026-05-07 15:44 55.36882 49.37164 5175 ft 251 kts 35°
2026-05-07 15:44 55.38285 49.38986 4894 ft 250 kts 35°
2026-05-07 15:45 55.39681 49.40800 4611 ft 249 kts 35°
2026-05-07 15:45 55.41078 49.42615 4334 ft 249 kts 36°
2026-05-07 15:45 55.42474 49.44427 4074 ft 248 kts 35°
2026-05-07 15:45 55.43892 49.46152 3808 ft 248 kts 34°
2026-05-07 15:46 55.46701 49.49504 3284 ft 234 kts 34°
2026-05-07 15:46 55.47996 49.51059 3019 ft 217 kts 35°
2026-05-07 15:46 55.49301 49.52087 2783 ft 199 kts
2026-05-07 15:47 55.50680 49.51763 2743 ft 201 kts 348°
2026-05-07 15:47 55.51929 49.50787 2671 ft 196 kts 316°
2026-05-07 15:47 55.52630 49.48849 2718 ft 179 kts 298°
2026-05-07 15:47 55.53213 49.47041 2707 ft 167 kts 304°
2026-05-07 15:48 55.53844 49.45353 2458 ft 159 kts 306°
2026-05-07 15:48 55.54441 49.43803 2285 ft 147 kts 306°
2026-05-07 15:48 55.55025 49.42300 2091 ft 151 kts 306°
2026-05-07 15:48 55.55622 49.40761 1874 ft 151 kts 306°
2026-05-07 15:49 55.56210 49.39248 1691 ft 148 kts 306°
2026-05-07 15:49 55.56787 49.37756 1463 ft 149 kts 307°
2026-05-07 15:49 55.57376 49.36244 1333 ft 149 kts 306°
2026-05-07 15:49 55.57957 49.34701 1105 ft 153 kts 305°
2026-05-07 15:50 55.58551 49.33166 939 ft 147 kts 306°
2026-05-07 15:50 55.59137 49.31682 716 ft 146 kts 306°
2026-05-07 15:50 55.59712 49.30225 509 ft 145 kts 306°
2026-05-07 15:50 55.60256 49.28847 416 ft 124 kts 306°
2026-05-07 15:51 55.60653 49.27805 417 ft 80 kts 304°
2026-05-07 15:51 55.60878 49.27219 412 ft 35 kts 304°
2026-05-07 15:51 55.60999 49.26907 410 ft 19 kts 304°
2026-05-07 15:51 55.61101 49.26792 414 ft 16 kts 14°
2026-05-07 15:52 55.61196 49.26905 417 ft 17 kts 45°
2026-05-07 15:52 55.61205 49.27025 409 ft 20 kts 111°
2026-05-07 15:52 55.61118 49.27259 409 ft 23 kts 124°
2026-05-07 15:52 55.61028 49.27493 412 ft 23 kts 124°
2026-05-07 15:53 55.60937 49.27727 411 ft 23 kts 124°
2026-05-07 15:53 55.60847 49.27958 409 ft 23 kts 124°
2026-05-07 15:53 55.60757 49.28192 415 ft 23 kts 124°
2026-05-07 15:53 55.60666 49.28425 415 ft 23 kts 124°
2026-05-07 15:54 55.60593 49.28673 420 ft 23 kts 97°
2026-05-07 15:54 55.60579 49.28956 420 ft 23 kts 94°
2026-05-07 15:54 55.60611 49.29182 415 ft 19 kts 41°
2026-05-07 15:54 55.60719 49.29310 416 ft 19 kts 34°
2026-05-07 15:55 55.60802 49.29417 416 ft 9 kts 49°
2026-05-07 15:55 55.60800 49.29509 411 ft 8 kts 116°
2026-05-07 15:55 55.60739 49.29670 412 ft 23 kts 124°
2026-05-07 15:55 55.60650 49.29901 412 ft 23 kts 124°
2026-05-07 15:56 55.60600 49.30044 419 ft 8 kts 102°
2026-05-07 15:56 55.60623 49.30112 415 ft 5 kts 38°
2026-05-07 15:56 55.60640 49.30135 417 ft 0 kts 36°